Cork, Ireland

1:04 AM IST on July 23, 2017 (GMT +0100)
Cork

Weather History for EICK - November, 2011

Change the Weather History Date:

Sunday, November 13, 2011

  Actual Average Record
Temperature  
Mean Temperature 54 °F -  
Max Temperature 55 °F 49 °F 55 °F (2006)
Min Temperature 52 °F 39 °F 33 °F (2000)
Degree Days  
Heating Degree Days 12    
Growing Degree Days 4 (Base 50)    
Moisture  
Dew Point 54 °F    
Average Humidity 95    
Maximum Humidity 100    
Minimum Humidity 92    
Precipitation  
Precipitation 0.00 in 0.16 in - ()
Sea Level Pressure  
Sea Level Pressure 30.02 in    
Wind  
Wind Speed 19 mph ()    
Max Wind Speed 25 mph    
Max Gust Speed 34 mph    
Visibility 5.9 miles    
Events      
Averages and records for this station are not official NWS values.
T = Trace of Precipitation, MM = Missing Value Source: Averaged Metar Reports

Daily Weather History Graph

Daily Weather History Graph

Search for Another Location

Airport or City:

Trip Planner

Search our weather history database for the weather conditions in past years. The results will help you decide how hot, cold, wet, or windy it might be!

Date:

Astronomy

Nov. 13, 2011 Rise Set
Actual Time 7:49 AM GMT 4:46 PM GMT
Civil Twilight 7:12 AM GMT 5:23 PM GMT
Nautical Twilight 6:31 AM GMT 6:04 PM GMT
Astronomical Twilight 5:51 AM GMT 6:43 PM GMT
Moon 6:28 PM GMT (11/13) 10:25 AM GMT (11/13)
Length of Visible Light 10h 11m
Length of Day
8h 57m
Waning Gibbous, 94% of the Moon is Illuminated
Nov 13
Waning Gibbous
Nov 18
Last Quarter
Nov 25
New
Dec 2
First Quarter
Dec 10
Full

Hourly Weather History & Observations

Time (GMT) Temp. Dew Point Humidity Pressure Visibility Wind Dir Wind Speed Gust Speed Precip Events Conditions
12:00 AM 55 °F 54 °F 94% 30.07 in 11 mi East 22.4 mph - -   Partly Cloudy
12:00 AM 55.4 °F 53.6 °F 94% 30.06 in 6.2 mi East 21.9 mph - N/A   Overcast
12:30 AM 55.4 °F 53.6 °F 94% 30.06 in 6.2 mi ESE 23.0 mph 34.5 mph N/A   Light Drizzle
1:00 AM 55.4 °F 55.4 °F 100% 30.04 in 5.0 mi ESE 23.0 mph 34.5 mph N/A   Light Drizzle
1:30 AM 55.4 °F 55.4 °F 100% 30.04 in 4.3 mi ESE 21.9 mph - N/A   Light Drizzle
2:00 AM 55.4 °F 55.4 °F 100% 30.04 in 5.0 mi ESE 21.9 mph 34.5 mph N/A   Mostly Cloudy
2:30 AM 55.4 °F 55.4 °F 100% 30.01 in 5.0 mi ESE 20.7 mph 32.2 mph N/A   Mostly Cloudy
3:00 AM 55.4 °F 55.4 °F 100% 30.01 in 5.0 mi East 25.3 mph - N/A   Mostly Cloudy
3:30 AM 55.4 °F 55.4 °F 100% 30.01 in 3.7 mi ESE 21.9 mph - N/A   Light Drizzle
4:00 AM 55.4 °F 55.4 °F 100% 30.01 in 5.0 mi ESE 20.7 mph - N/A   Light Drizzle
4:30 AM 55.4 °F 55.4 °F 100% 29.98 in 5.0 mi ESE 24.2 mph - N/A   Mostly Cloudy
5:00 AM 55.4 °F 55.4 °F 100% 29.98 in 4.3 mi ESE 24.2 mph - N/A   Mostly Cloudy
5:30 AM 55.4 °F 55.4 °F 100% 30.01 in 6.2 mi ESE 23.0 mph - N/A   Mostly Cloudy
6:00 AM 56 °F 54 °F 93% 30.04 in 9 mi SE 20.1 mph - -   Mist
6:00 AM 55.4 °F 55.4 °F 100% 30.01 in 6.2 mi SE 20.7 mph - N/A   Mostly Cloudy
6:30 AM 55.4 °F 53.6 °F 94% 30.04 in 6.2 mi ESE 18.4 mph - N/A   Mostly Cloudy
7:00 AM 55.4 °F 53.6 °F 94% 30.01 in 6.2 mi ESE 17.3 mph - N/A   Mostly Cloudy
7:30 AM 55.4 °F 53.6 °F 94% 30.01 in 6.2 mi ESE 21.9 mph - N/A   Mostly Cloudy
8:00 AM 55.4 °F 53.6 °F 94% 30.01 in 6.2 mi ESE 19.6 mph - N/A   Mostly Cloudy
8:30 AM 55.4 °F 53.6 °F 94% 30.01 in 6.2 mi East 23.0 mph - N/A   Scattered Clouds
9:00 AM 55.4 °F 53.6 °F 94% 30.01 in 6.2 mi ESE 18.4 mph - N/A   Mostly Cloudy
9:30 AM 55.4 °F 53.6 °F 94% 30.01 in 6.2 mi ESE 20.7 mph - N/A   Mostly Cloudy
10:00 AM 55.4 °F 53.6 °F 94% 30.04 in 6.2 mi ESE 17.3 mph - N/A   Mostly Cloudy
10:30 AM 55.4 °F 53.6 °F 94% 30.04 in 6.2 mi ESE 17.3 mph - N/A   Mostly Cloudy
11:00 AM 55.4 °F 53.6 °F 94% 30.04 in 6.2 mi ESE 19.6 mph - N/A   Mostly Cloudy
11:30 AM 55.4 °F 53.6 °F 94% 30.04 in 6.2 mi ESE 18.4 mph - N/A   Mostly Cloudy
12:00 PM 55 °F 54 °F 95% 30.04 in 9 mi ESE 17.9 mph - -   Mist
12:00 PM 55.4 °F 53.6 °F 94% 30.04 in 6.2 mi ESE 18.4 mph - N/A   Mostly Cloudy
12:30 PM 55.4 °F 53.6 °F 94% 30.01 in 6.2 mi ESE 17.3 mph - N/A   Mostly Cloudy
1:00 PM 55.4 °F 53.6 °F 94% 30.01 in 6.2 mi ESE 17.3 mph - N/A   Mostly Cloudy
1:30 PM 55.4 °F 53.6 °F 94% 30.01 in 6.2 mi ESE 17.3 mph - N/A   Mostly Cloudy
2:00 PM 55.4 °F 53.6 °F 94% 30.01 in 6.2 mi ESE 17.3 mph - N/A   Mostly Cloudy
2:30 PM 55.4 °F 53.6 °F 94% 30.01 in 6.2 mi ESE 17.3 mph - N/A   Mostly Cloudy
3:00 PM 55.4 °F 53.6 °F 94% 30.01 in 6.2 mi ESE 17.3 mph 28.8 mph N/A   Mostly Cloudy
3:30 PM 55.4 °F 53.6 °F 94% 30.01 in 6.2 mi ESE 17.3 mph - N/A   Mostly Cloudy
4:00 PM 55.4 °F 53.6 °F 94% 30.01 in 6.2 mi ESE 19.6 mph - N/A   Mostly Cloudy
4:30 PM 55.4 °F 53.6 °F 94% 30.01 in 6.2 mi ESE 19.6 mph - N/A   Mostly Cloudy
5:00 PM 55.4 °F 53.6 °F 94% 30.01 in 6.2 mi ESE 17.3 mph - N/A   Mostly Cloudy
5:30 PM 55.4 °F 53.6 °F 94% 30.01 in 6.2 mi ESE 16.1 mph - N/A   Mostly Cloudy
6:00 PM 55 °F 53 °F 92% 30.02 in 7 mi East 20.1 mph - -   Mist
6:00 PM 55.4 °F 53.6 °F 94% 30.01 in 6.2 mi East 20.7 mph 32.2 mph N/A   Mostly Cloudy
6:30 PM 55.4 °F 53.6 °F 94% 30.01 in 6.2 mi ESE 17.3 mph - N/A   Mostly Cloudy
7:00 PM 55.4 °F 53.6 °F 94% 30.01 in 6.2 mi ESE 16.1 mph - N/A   Mostly Cloudy
7:30 PM 55.4 °F 53.6 °F 94% 30.01 in 6.2 mi ESE 13.8 mph - N/A   Mostly Cloudy
8:00 PM 55.4 °F 53.6 °F 94% 30.01 in 5.6 mi ESE 17.3 mph - N/A   Mostly Cloudy
8:30 PM 55.4 °F 53.6 °F 94% 30.01 in 5.6 mi ESE 19.6 mph - N/A   Mostly Cloudy
9:00 PM 55.4 °F 53.6 °F 94% 30.01 in 5.0 mi SE 15.0 mph - N/A   Mostly Cloudy
9:30 PM 55.4 °F 53.6 °F 94% 30.01 in 5.0 mi SE 18.4 mph - N/A   Mostly Cloudy
10:00 PM 55.4 °F 53.6 °F 94% 30.04 in 5.0 mi SE 15.0 mph - N/A   Mostly Cloudy
10:30 PM 55.4 °F 53.6 °F 94% 30.01 in 4.3 mi ESE 15.0 mph - N/A   Mostly Cloudy
11:00 PM 55.4 °F 53.6 °F 94% 30.01 in 2.8 mi SE 16.1 mph - N/A   Mostly Cloudy
11:30 PM 55.4 °F 53.6 °F 94% 30.01 in 2.5 mi SE 16.1 mph - N/A   Light Drizzle